OAS6813 KSEA-CYVR

Flight info

Callsign OAS6813
Flight time 0h 31m
Altitude 18000
Route PAE GRIZZ9
Aircraft A320/M-SDE3FGHIRWY/LB1

Departure

Time 2026-05-04 14:07
Airport Seattle–Tacoma International Airport (KSEA)

Arrival

Time 2026-05-04 14:38
Airport Vancouver International Airport (CYVR)
Time Latitude Longitude Altitude Speed Heading
2026-05-04 13:53 47.44652 -122.30464 384 ft 0 kts 90°
2026-05-04 13:55 47.44652 -122.30471 384 ft 2 kts 91°
2026-05-04 13:55 47.44647 -122.30510 384 ft 3 kts 55°
2026-05-04 13:55 47.44634 -122.30528 384 ft 3 kts 17°
2026-05-04 13:56 47.44615 -122.30533 384 ft 2 kts
2026-05-04 13:56 47.44608 -122.30533 384 ft 0 kts
2026-05-04 13:59 47.44621 -122.30533 384 ft 4 kts
2026-05-04 13:59 47.44670 -122.30532 384 ft 10 kts
2026-05-04 13:59 47.44775 -122.30613 384 ft 10 kts 332°
2026-05-04 14:00 47.44846 -122.30622 384 ft 11 kts
2026-05-04 14:00 47.45008 -122.30620 384 ft 11 kts
2026-05-04 14:00 47.45080 -122.30620 384 ft 10 kts 359°
2026-05-04 14:01 47.45143 -122.30621 384 ft 8 kts 359°
2026-05-04 14:01 47.45198 -122.30623 384 ft 7 kts 358°
2026-05-04 14:01 47.45280 -122.30624 384 ft 5 kts
2026-05-04 14:02 47.45311 -122.30623 384 ft 5 kts
2026-05-04 14:02 47.45347 -122.30622 384 ft 6 kts
2026-05-04 14:02 47.45400 -122.30621 384 ft 9 kts
2026-05-04 14:02 47.45476 -122.30619 384 ft 13 kts
2026-05-04 14:03 47.45578 -122.30618 384 ft 17 kts
2026-05-04 14:03 47.45705 -122.30617 384 ft 20 kts
2026-05-04 14:03 47.45857 -122.30616 384 ft 24 kts
2026-05-04 14:03 47.45959 -122.30615 384 ft 2 kts 358°
2026-05-04 14:04 47.45972 -122.30619 384 ft 0 kts 346°
2026-05-04 14:04 47.45982 -122.30627 384 ft 1 kts 328°
2026-05-04 14:04 47.45986 -122.30634 384 ft 1 kts 318°
2026-05-04 14:05 47.46000 -122.30677 384 ft 2 kts 277°
2026-05-04 14:05 47.46001 -122.30701 384 ft 6 kts 276°
2026-05-04 14:05 47.45964 -122.30770 384 ft 13 kts 204°
2026-05-04 14:06 47.45859 -122.30781 384 ft 33 kts 180°
2026-05-04 14:06 47.45351 -122.30784 384 ft 109 kts 180°
2026-05-04 14:06 47.44390 -122.30792 386 ft 165 kts 180°
2026-05-04 14:06 47.43171 -122.30792 827 ft 177 kts 180°
2026-05-04 14:07 47.41917 -122.30780 1481 ft 181 kts 180°
2026-05-04 14:07 47.40653 -122.30733 2142 ft 183 kts 177°
2026-05-04 14:07 47.39324 -122.30559 2525 ft 203 kts 174°
2026-05-04 14:07 47.37843 -122.30341 2879 ft 222 kts 175°
2026-05-04 14:08 47.36220 -122.30134 3300 ft 243 kts 176°
2026-05-04 14:08 47.34463 -122.29923 3792 ft 264 kts 176°
2026-05-04 14:08 47.32631 -122.29427 4555 ft 273 kts 157°
2026-05-04 14:08 47.31086 -122.27792 5377 ft 278 kts 129°
2026-05-04 14:09 47.30174 -122.22397 7065 ft 284 kts 75°
2026-05-04 14:09 47.31024 -122.19785 7880 ft 286 kts 49°
2026-05-04 14:10 47.34485 -122.17011 9448 ft 291 kts 15°
2026-05-04 14:10 47.36430 -122.16233 10197 ft 296 kts 12°
2026-05-04 14:10 47.38550 -122.15809 10452 ft 319 kts 360°
2026-05-04 14:10 47.40807 -122.15981 10793 ft 337 kts 355°
2026-05-04 14:11 47.43166 -122.16271 11452 ft 343 kts 355°
2026-05-04 14:11 47.47966 -122.16966 12962 ft 349 kts 352°
2026-05-04 14:11 47.50378 -122.17492 13698 ft 352 kts 351°
2026-05-04 14:12 47.52801 -122.18098 14415 ft 355 kts 350°
2026-05-04 14:12 47.55241 -122.18739 15120 ft 357 kts 350°
2026-05-04 14:12 47.60154 -122.20017 16496 ft 361 kts 351°
2026-05-04 14:13 47.62639 -122.20634 17154 ft 363 kts 351°
2026-05-04 14:13 47.65142 -122.21243 17750 ft 366 kts 351°
2026-05-04 14:13 47.67654 -122.21850 17957 ft 365 kts 351°
2026-05-04 14:13 47.70166 -122.22455 18002 ft 367 kts 351°
2026-05-04 14:14 47.72692 -122.23064 18011 ft 367 kts 351°
2026-05-04 14:14 47.77729 -122.24290 18010 ft 367 kts 351°
2026-05-04 14:14 47.80242 -122.24902 18017 ft 367 kts 351°
2026-05-04 14:15 47.85286 -122.26132 18018 ft 367 kts 351°
2026-05-04 14:15 47.90320 -122.27372 18011 ft 367 kts 351°
2026-05-04 14:16 47.95355 -122.28678 18022 ft 367 kts 350°
2026-05-04 14:16 47.97864 -122.29402 18016 ft 367 kts 349°
2026-05-04 14:17 48.02873 -122.30899 18016 ft 367 kts 349°
2026-05-04 14:17 48.05344 -122.31635 18020 ft 367 kts 349°
2026-05-04 14:17 48.10351 -122.33108 18023 ft 367 kts 349°
2026-05-04 14:18 48.12861 -122.33833 18024 ft 367 kts 350°
2026-05-04 14:18 48.17879 -122.35272 18017 ft 367 kts 349°
2026-05-04 14:19 48.22899 -122.36726 18022 ft 367 kts 349°
2026-05-04 14:19 48.25403 -122.37453 18018 ft 367 kts 349°
2026-05-04 14:19 48.27915 -122.38187 18025 ft 367 kts 349°
2026-05-04 14:19 48.30424 -122.38922 18024 ft 368 kts 349°
2026-05-04 14:20 48.32934 -122.39659 18030 ft 367 kts 349°
2026-05-04 14:20 48.35446 -122.40397 18028 ft 367 kts 349°
2026-05-04 14:20 48.37952 -122.41129 18025 ft 367 kts 349°
2026-05-04 14:21 48.42874 -122.42576 17465 ft 354 kts 349°
2026-05-04 14:21 48.45278 -122.43287 17043 ft 351 kts 349°
2026-05-04 14:21 48.47665 -122.43993 16592 ft 348 kts 349°
2026-05-04 14:21 48.50030 -122.44692 16157 ft 346 kts 349°
2026-05-04 14:22 48.52386 -122.45389 15709 ft 344 kts 349°
2026-05-04 14:22 48.54730 -122.46081 15251 ft 342 kts 349°
2026-05-04 14:22 48.57052 -122.46765 14795 ft 340 kts 349°
2026-05-04 14:22 48.59377 -122.47449 14336 ft 339 kts 349°
2026-05-04 14:23 48.63983 -122.48808 13423 ft 336 kts 349°
2026-05-04 14:23 48.66277 -122.49487 12966 ft 335 kts 349°
2026-05-04 14:23 48.68549 -122.50205 12497 ft 333 kts 344°
2026-05-04 14:24 48.70675 -122.51562 12030 ft 332 kts 329°
2026-05-04 14:24 48.72489 -122.53690 11659 ft 328 kts 315°
2026-05-04 14:24 48.73932 -122.56329 11322 ft 323 kts 308°
2026-05-04 14:24 48.75304 -122.59006 10974 ft 320 kts 309°
2026-05-04 14:25 48.76668 -122.61659 10633 ft 319 kts 308°
2026-05-04 14:25 48.79359 -122.66902 10147 ft 306 kts 308°
2026-05-04 14:25 48.80642 -122.69406 9983 ft 296 kts 308°
2026-05-04 14:26 48.81893 -122.71851 9774 ft 291 kts 308°
2026-05-04 14:26 48.83131 -122.74276 9596 ft 290 kts 308°
2026-05-04 14:26 48.84367 -122.76696 9319 ft 289 kts 308°
2026-05-04 14:26 48.85404 -122.78722 9074 ft 289 kts 308°
2026-05-04 14:27 48.86633 -122.81128 8783 ft 288 kts 308°
2026-05-04 14:27 48.87854 -122.83524 8490 ft 286 kts 308°
2026-05-04 14:27 48.89066 -122.85910 8198 ft 283 kts 308°
2026-05-04 14:27 48.90239 -122.88223 8086 ft 270 kts 308°
2026-05-04 14:28 48.91373 -122.90453 7857 ft 263 kts 308°
2026-05-04 14:28 48.92473 -122.92620 7857 ft 262 kts 308°
2026-05-04 14:28 48.93588 -122.94829 7483 ft 263 kts 308°
2026-05-04 14:28 48.94692 -122.97021 7142 ft 260 kts 308°
2026-05-04 14:29 48.97470 -123.00135 6491 ft 252 kts 354°
2026-05-04 14:29 49.00617 -122.98276 5869 ft 252 kts 37°
2026-05-04 14:30 49.02000 -122.96655 5551 ft 251 kts 37°
2026-05-04 14:30 49.03364 -122.95061 5234 ft 250 kts 37°
2026-05-04 14:30 49.06074 -122.91797 4865 ft 248 kts 46°
2026-05-04 14:31 49.07057 -122.89639 4791 ft 249 kts 65°
2026-05-04 14:31 49.07489 -122.84433 4613 ft 251 kts 90°
2026-05-04 14:32 49.08366 -122.79653 4420 ft 230 kts 49°
2026-05-04 14:32 49.09598 -122.78142 4320 ft 228 kts 25°
2026-05-04 14:32 49.11119 -122.77537 4223 ft 226 kts
2026-05-04 14:32 49.12660 -122.77920 4130 ft 226 kts 338°
2026-05-04 14:33 49.14108 -122.78872 4029 ft 227 kts 336°
2026-05-04 14:33 49.15553 -122.79833 3998 ft 226 kts 335°
2026-05-04 14:33 49.16759 -122.81303 4003 ft 225 kts 300°
2026-05-04 14:33 49.17060 -122.83609 4008 ft 226 kts 259°
2026-05-04 14:34 49.16586 -122.85915 4002 ft 229 kts 256°
2026-05-04 14:34 49.16610 -122.88306 3869 ft 231 kts 286°
2026-05-04 14:34 49.17074 -122.90710 3344 ft 239 kts 284°
2026-05-04 14:34 49.17420 -122.93197 2977 ft 239 kts 281°
2026-05-04 14:35 49.17711 -122.95685 2651 ft 237 kts 280°
2026-05-04 14:35 49.17995 -122.98160 2340 ft 234 kts 279°
2026-05-04 14:35 49.18271 -123.00539 2030 ft 221 kts 279°
2026-05-04 14:35 49.18528 -123.02762 1743 ft 205 kts 279°
2026-05-04 14:36 49.18772 -123.04873 1480 ft 199 kts 280°
2026-05-04 14:36 49.19008 -123.06920 1260 ft 188 kts 280°
2026-05-04 14:36 49.19223 -123.08786 977 ft 171 kts 280°
2026-05-04 14:36 49.19417 -123.10472 774 ft 153 kts 280°
2026-05-04 14:37 49.19594 -123.12004 575 ft 145 kts 280°
2026-05-04 14:37 49.19767 -123.13517 384 ft 141 kts 280°
2026-05-04 14:37 49.19934 -123.14970 207 ft 140 kts 280°
2026-05-04 14:37 49.20103 -123.16448 35 ft 139 kts 280°
2026-05-04 14:38 49.20270 -123.17850 7 ft 112 kts 280°
2026-05-04 14:38 49.20354 -123.18584 12 ft 41 kts 279°
2026-05-04 14:38 49.20393 -123.19008 10 ft 40 kts 270°
2026-05-04 14:38 49.20347 -123.19352 8 ft 22 kts 260°
2026-05-04 14:39 49.20329 -123.19446 9 ft 7 kts 251°
2026-05-04 14:39 49.20312 -123.19519 9 ft 8 kts 251°
2026-05-04 14:39 49.20281 -123.19587 9 ft 8 kts 187°
2026-05-04 14:40 49.20225 -123.19396 9 ft 13 kts 101°
2026-05-04 14:40 49.20209 -123.19237 9 ft 17 kts 98°
2026-05-04 14:40 49.20189 -123.19042 9 ft 20 kts 99°
2026-05-04 14:40 49.20161 -123.18814 9 ft 23 kts 100°
2026-05-04 14:41 49.20115 -123.18685 11 ft 7 kts 194°
2026-05-04 14:41 49.20086 -123.18700 9 ft 6 kts 198°
2026-05-04 14:41 49.19978 -123.18726 9 ft 10 kts 188°
2026-05-04 14:42 49.19808 -123.18809 10 ft 12 kts 223°
2026-05-04 14:42 49.19759 -123.18744 9 ft 12 kts 110°
2026-05-04 14:42 49.19694 -123.18674 9 ft 14 kts 191°
2026-05-04 14:43 49.19584 -123.18702 10 ft 18 kts 188°
2026-05-04 14:43 49.19453 -123.18738 10 ft 19 kts 184°
2026-05-04 14:43 49.19397 -123.18606 10 ft 16 kts 114°
2026-05-04 14:43 49.19292 -123.18600 10 ft 17 kts 190°
2026-05-04 14:44 49.19178 -123.18546 10 ft 19 kts 146°
2026-05-04 14:44 49.19108 -123.18395 10 ft 11 kts 66°
2026-05-04 14:44 49.19119 -123.18358 10 ft 3 kts 73°
2026-05-04 14:44 49.19123 -123.18315 10 ft 6 kts 101°
2026-05-04 14:45 49.19117 -123.18220 10 ft 12 kts 93°
2026-05-04 14:45 49.19095 -123.18076 10 ft 16 kts 120°
2026-05-04 14:45 49.18996 -123.18059 10 ft 0 kts 188°
2026-05-04 14:45 49.18977 -123.18063 10 ft 6 kts 188°
2026-05-04 14:46 49.19156 -123.17977 10 ft 0 kts 36°